Regional Weather Roundup
Issued by NWS Northern Indiana

Home | Current Version | Previous Version | Graphics & Text | Print | Product List | Glossary On
Versions: 1 2 3 4 5 6 7 8 9 10 11 12 13 14 15 16 17 18 19 20 21 22 23 24 25 26 27 28 29 30 31 32 33 34 35 36 37 38 39 40 41 42 43 44 45 46 47 48 49 50
000
ASUS43 KIWX 251010
RWRIWX

KIWX WEATHER ROUNDUP
NATIONAL WEATHER SERVICE NORTHERN INDIANA
500 AM EST THU DEC 25 2014

NOTE: "FAIR" INDICATES FEW OR NO CLOUDS BELOW 12,000 FEET WITH NO
SIGNIFICANT WEATHER AND/OR OBSTRUCTIONS TO VISIBILITY.

* THESE STATIONS ARE NOT UNDER NWS QUALITY CONTROL. THEY ALSO MAY NOT
  REPORT WEATHER SUCH AS PRECIPITATION OR FOG.

INZ001>027-251100-
NORTHERN INDIANA

CITY           SKY/WX    TMP DP  RH WIND       PRES   REMARKS
VALPARAISO     CLOUDY    35  32  88 W12       29.79R WCI  27
MICHIGAN CITY* CLOUDY    36  32  87 W15G22    29.77R
LAPORTE*       CLOUDY    37  34  89 W12G17    29.77R
KNOX*          CLOUDY    36  31  82 W14       29.78R
SOUTH BEND     CLOUDY    37  32  82 W13       29.76R
GOSHEN         CLOUDY    36  32  85 W15       29.75R
MONTICELLO*    CLOUDY    35  33  90 W17       29.82R WCI  25
LOGANSPORT*    CLOUDY    36  32  87 W16G23    29.83R
ROCHESTER*     CLOUDY    37  36  93 W12G20    29.80R
WARSAW*        CLOUDY    34  32  93 W13G21    29.77R WCI  25
ANGOLA*        CLOUDY    36  34  93 W10       29.71R
FORT WAYNE     CLOUDY    36  33  89 W18       29.77R
HUNTINGTON*    CLOUDY    36  33  90 W13G21    29.78R
PERU/GRISSOM   CLOUDY    36  36 100 W16       29.81R
MARION*        CLOUDY    35  33  89 W15       29.82R WCI  26

$$
INZ028>050-251100-
CENTRAL INDIANA

CITY           SKY/WX    TMP DP  RH WIND       PRES   REMARKS
LAFAYETTE      CLOUDY    35  31  85 W15       29.85R WCI  25
KOKOMO*        CLOUDY    36  30  80 W14G21    29.82R
MUNCIE*        CLOUDY    37  33  85 W13       29.83R
INDIANAPOLIS   CLOUDY    34  30  85 W15       29.86S WCI  24

$$
MIZ043>046-050>051-056>058-064>065-071>073-077>080-251100-
SOUTHWEST LOWER MICHIGAN

CITY           SKY/WX    TMP DP  RH WIND       PRES   REMARKS
BATTLE CREEK   CLOUDY    37  32  82 W20G25    29.68R
BENTON HARBOR  CLOUDY    37  33  85 W16       29.74R
COLDWATER*     CLOUDY    36  33  92 W20G25    29.70R
HILLSDALE*     CLOUDY    36  36  99 W9G20     29.67R
HOLLAND        CLOUDY    39  31  72 W18G25    29.69R
GRAND RAPIDS   CLOUDY    36  32  85 W15       29.66R
KALAMAZOO      CLOUDY    37  32  82 W15       29.70R
STURGIS*       CLOUDY    36  34  93 W12       29.72R
THREE RIVERS*  CLOUDY    37  33  85 W10G17    29.72R

$$
OHZ001>008-015>018-024>025-251100-
NORTHWEST OHIO

CITY           SKY/WX    TMP DP  RH WIND       PRES   REMARKS
WAUSEON*       CLOUDY    36  36 100 W16G25    29.71R
DEFIANCE       CLOUDY    37  33  85 W13G22    29.74R
FINDLAY        CLOUDY    37  33  85 W18G26    29.73R
TOLEDO EXPRESS CLOUDY    36  33  89 W17G23    29.70R
TOLEDO METCALF CLOUDY    38  33  82 W18       29.71R
LIMA           CLOUDY    38  34  85 W18G24    29.76R

$$
AND FOR LAKE MICHIGAN COASTAL AND OPEN LAKE BUOY OBSERVATIONS

STATION/POSITION TEMP    WIND        PRES    VSBY  WAVE
                 AIR SEA DIR/SP/G                  HT/PER
                 (F)     (DEG/KT/KT) (MB)    (MI)  (FT/S)
CALUMET HARBOR    37     240/  7/ 12 1007.3R
MICHIGAN CITY     37     230/ 26/ 29   N/A
SAINT JOSEPH      38     250/ 18/ 21 1007.5R

$$
&&



USA.gov is the U.S. government's official web portal to all federal, state and local government web resources and services.